1504360800.92,48835,22.13,73698.0,6.95,0.95,0.25,0,*7E
1504360802.15,48836,22.13,73692.3,6.93,1.09,0.79,0,*46
1504360803.4,48837,22.13,73690.5,6.95,1.43,1.37,0,*74
1504360804.63,48838,22.13,73692.3,6.93,2.13,2.25,0,*7B
1504360805.82,48839,22.13,73704.8,6.93,1.79,1.93,0,*7B
1504360807.08,48840,22.13,73702.8,6.95,1.97,2.17,0,*7C
1504360808.31,48841,22.13,73690.8,6.93,1.33,1.43,0,*77
1504360809.51,48842,22.13,73692.0,6.93,1.79,1.93,0,*77
1504360810.75,48843,22.13,73694.8,6.91,2.47,2.65,0,*70
1504360811.98,48844,22.13,73690.0,6.89,2.59,2.59,0,*7E
1504360813.21,48845,22.13,73684.8,6.91,2.25,2.27,0,*74
1504360814.44,48846,22.13,73698.8,6.89,2.47,2.59,0,*73
1504360815.67,48847,22.13,73692.8,6.89,2.59,2.69,0,*7E
1504360816.9,48848,22.13,73698.0,6.89,2.13,2.47,0,*73
1504360818.15,48849,22.13,73698.3,6.87,1.93,2.21,0,*77
1504360819.4,48850,22.13,73694.0,6.87,1.59,1.93,0,*73
1504360820.6,48851,22.13,73698.0,6.85,1.01,1.59,0,*7B
1504360821.79,48852,22.13,73700.8,6.85,1.01,1.43,0,*73
1504360823.05,48853,22.13,73698.5,6.81,1.29,1.71,0,*7D
1504360824.27,48854,22.13,73696.8,6.83,1.71,1.93,0,*79
1504360825.5,48855,22.13,73698.0,6.81,2.43,2.65,0,*72
1504360826.75,48856,22.13,73694.5,6.81,2.51,2.73,0,*75
1504360827.98,48857,22.13,73696.8,6.81,2.65,2.77,0,*77
1504360829.21,48858,22.13,73696.5,6.83,2.55,2.85,0,*74
1504360830.45,48859,22.13,73692.3,6.81,2.73,2.85,0,*73
1504360831.65,48860,22.13,73702.0,6.83,2.89,2.95,0,*7F
1504360832.82,48861,22.13,73700.8,6.83,2.99,2.99,0,*73
1504360834.08,48862,22.13,73700.0,6.81,2.43,2.39,0,*7F
1504360835.3,48863,22.13,73700.0,6.83,2.25,1.93,0,*7F
1504360836.53,48864,22.13,73700.5,6.83,1.59,1.21,0,*79
1504360837.78,48865,22.13,73704.0,6.81,1.21,0.71,0,*41
1504360839.04,48866,22.13,73704.3,6.81,1.29,1.17,0,*7B
1504360840.25,48867,22.13,73706.3,6.81,0.71,0.43,0,*76
1504360841.48,48868,22.13,73700.0,6.81,0.33,0.25,0,*7F
1504360842.72,48869,22.13,73702.3,6.81,0.59,0.55,0,*75
1504360843.95,48870,22.13,73706.0,6.81,0.37,0.13,0,*77
1504360845.15,48871,22.13,73700.8,6.81,-0.07,-0.41,0,*42
1504360846.35,48872,22.13,73704.0,6.81,-0.29,-0.61,0,*7F
1504360847.54,48873,22.13,73706.5,6.81,-0.61,-0.73,0,*71
1504360848.75,48874,22.13,73700.0,6.81,-0.37,-0.49,0,*7C
1504360849.94,48875,22.06,73696.5,6.81,-0.03,-0.03,0,*74
1504360851.18,48876,22.13,73704.0,6.81,0.25,-0.27,0,*58
1504360852.42,48877,22.13,73704.0,6.81,-0.53,-1.47,0,*42
1504360853.65,48878,22.13,73706.5,6.81,-0.73,-1.35,0,*4A
1504360854.86,48879,22.13,73704.3,6.81,0.01,-0.93,0,*6E
1504360856.05,48880,22.13,73710.0,6.81,0.09,-1.25,0,*5C
1504360857.24,48881,22.13,73704.8,6.83,0.43,-0.89,0,*56
1504360858.46,48882,22.06,73708.3,6.83,0.71,-0.93,0,*5F
1504360859.64,48883,22.06,73708.3,6.83,-0.07,-1.79,0,*77
1504360860.82,48884,22.06,73710.0,6.85,-0.69,-1.63,0,*45
1504360862.06,48885,22.13,73714.0,6.87,-1.09,-1.59,0,*78
1504360863.3,48886,22.13,73714.8,6.87,-0.89,-0.77,0,*7F
1504360864.52,48887,22.13,73714.5,6.87,-0.15,0.29,0,*5D
1504360865.76,48888,22.13,73710.8,6.91,0.13,0.91,0,*7D
1504360867.01,48889,22.13,73712.5,6.91,0.25,0.91,0,*79
1504360868.25,48890,22.06,73712.8,6.95,0.41,0.71,0,*79
1504360869.47,48891,22.13,73712.8,6.93,0.59,0.91,0,*79
1504360870.68,48892,22.13,73714.5,6.93,0.21,0.59,0,*71
1504360871.92,48893,22.13,73714.8,6.95,0.75,1.25,0,*4D
1504360873.17,48894,22.06,73710.0,6.95,1.25,1.59,0,*75
1504360874.39,48895,22.06,73708.8,6.95,1.75,1.59,0,*71
1504360875.62,48896,22.13,73712.3,6.95,1.97,1.83,0,*79
1504360876.87,48897,22.13,73714.5,6.95,2.17,2.05,0,*7E
1504360878.08,48898,22.13,73712.5,6.97,2.17,1.75,0,*77
1504360879.31,48899,22.13,73714.8,6.97,2.39,1.85,0,*75
1504360880.56,48900,22.13,73714.8,6.99,2.21,1.37,0,*7A
1504360881.8,48901,22.13,73714.5,6.99,2.09,0.67,0,*45
1504360883.01,48902,22.13,73714.5,6.99,1.79,-0.33,0,*6E
1504360884.27,48903,22.06,73712.0,7.03,1.55,-0.89,0,*62
1504360885.53,48904,22.06,73710.8,7.03,1.29,-0.93,0,*65
1504360886.73,48905,22.06,73708.5,7.03,1.83,-0.07,0,*59
1504360887.93,48906,22.13,73710.8,7.05,1.63,-0.65,0,*66
1504360889.16,48907,22.13,73710.8,7.05,1.21,-0.89,0,*63
1504360890.41,48908,22.06,73710.0,7.03,1.29,-0.37,0,*67
1504360891.6,48909,22.06,73708.0,7.05,1.75,0.33,0,*40
1504360892.85,48910,22.06,73712.0,7.03,2.25,0.71,0,*4E
1504360894.07,48911,22.06,73712.8,7.03,2.27,0.71,0,*4D
1504360895.3,48912,22.13,73716.0,7.03,2.27,0.83,0,*43
1504360896.54,48913,22.06,73714.0,7.05,2.17,0.91,0,*44
1504360897.76,48914,22.06,73712.0,7.05,2.13,1.17,0,*78
1504360898.96,48915,22.06,73716.8,7.05,2.39,1.83,0,*7C
1504360900.18,48916,22.06,73716.8,7.05,2.73,1.89,0,*7B
1504360901.4,48917,22.13,73722.0,7.09,2.05,0.95,0,*4B
1504360902.62,48918,22.06,73718.0,7.09,1.55,0.63,0,*4B
1504360903.87,48919,22.13,73718.5,7.07,1.55,0.41,0,*44
1504360905.13,48920,22.06,73718.3,7.07,1.09,-0.23,0,*6E
1504360906.31,48921,22.06,73718.0,7.09,0.97,-0.15,0,*52
1504360907.51,48922,22.06,73718.3,7.09,0.59,-0.45,0,*56
1504360908.69,48923,22.13,73716.8,7.09,0.37,-0.61,0,*59
1504360909.9,48924,22.06,73712.3,7.09,-0.11,-1.09,0,*48
1504360911.11,48925,22.13,73716.5,7.09,-0.73,-1.35,0,*42
1504360912.35,48926,22.13,73716.3,7.11,-1.09,-1.25,0,*75
1504360913.61,48927,22.13,73718.8,7.11,-1.43,-1.83,0,*76
1504360914.8,48928,22.13,73716.8,7.13,-2.43,-4.05,0,*73
1504360916.01,48929,22.06,73714.5,7.13,-4.61,-5.77,0,*70
1504360917.21,48930,22.06,73712.0,7.11,-5.43,-6.01,0,*79
1504360918.46,48931,22.06,73708.3,7.11,-5.51,-5.23,0,*78
1504360919.67,48932,22.06,73714.3,7.13,-5.39,-4.69,0,*78
1504360920.88,48933,22.06,73714.5,7.13,-5.23,-4.17,0,*7B
1504360922.1,48934,22.13,73714.3,7.11,-6.13,-6.13,0,*78
1504360923.35,48935,22.06,73710.0,7.15,-7.57,-7.11,0,*7F
1504360924.6,48936,22.06,73706.3,7.11,-7.39,-5.65,0,*71
1504360925.85,48937,22.06,73704.3,7.11,-6.81,-5.23,0,*70
1504360927.07,48938,22.06,73700.0,7.13,-7.05,-4.21,0,*73
1504360928.31,48939,22.06,73700.8,7.13,-5.65,-2.67,0,*72
1504360929.5,48940,22.06,73706.0,7.13,-4.17,-2.39,0,*73
1504360930.75,48941,22.06,73704.8,7.13,-3.43,-2.51,0,*7A
1504360931.99,48942,22.06,73700.5,7.11,-2.71,-2.31,0,*7D
1504360933.2,48943,22.06,73704.8,7.11,-3.23,-2.83,0,*73
1504360934.44,48944,22.13,73708.5,7.11,-3.47,-2.99,0,*7D
1504360935.65,48945,22.06,73706.0,7.11,-4.53,-4.13,0,*7A
1504360936.86,48946,22.06,73706.8,7.09,-4.89,-4.05,0,*70
1504360938.1,48947,22.13,73708.5,7.09,-5.93,-5.19,0,*77
1504360939.37,48948,22.06,73714.8,7.07,-5.73,-4.69,0,*7E
1504360940.59,48949,22.06,73704.5,7.07,-6.39,-5.55,0,*7C
1504360941.8,48950,22.06,73710.5,7.07,-8.33,-6.39,0,*79
1504360942.98,48951,22.06,73708.5,7.05,-7.87,-5.35,0,*75
1504360944.22,48952,22.06,73710.0,7.05,-7.99,-6.27,0,*79
1504360945.44,48953,22.06,73704.3,7.03,-10.05,-7.19,0,*41
1504360946.66,48954,22.06,73708.5,7.03,-9.57,-6.01,0,*71
1504360947.88,48955,22.06,73706.3,7.03,-8.75,-6.31,0,*72
1504360949.1,48956,22.06,73704.3,7.03,-7.49,-5.35,0,*76
1504360950.34,48957,22.13,73708.3,7.03,-6.81,-4.93,0,*7F
1504360951.59,48958,22.06,73706.0,7.03,-6.81,-5.85,0,*76
1504360952.83,48959,22.06,73714.5,6.99,-5.81,-4.49,0,*77
1504360954.08,48960,22.06,73710.8,6.99,-6.35,-5.27,0,*78
1504360955.3,48961,22.06,73700.0,6.99,-7.11,-6.55,0,*78
1504360956.52,48962,22.06,73700.3,6.97,-7.11,-6.97,0,*7B
1504360957.75,48963,22.06,73696.5,6.97,-7.27,-7.69,0,*7F
1504360958.93,48964,22.06,73702.0,6.97,-7.83,-8.33,0,*76
1504360960.16,48965,22.06,73700.8,6.95,-8.51,-8.33,0,*75
1504360961.38,48966,22.06,73704.8,6.95,-6.51,-6.73,0,*72
1504360962.57,48967,22.06,73700.8,6.93,-8.17,-8.41,0,*76
1504360963.84,48968,22.06,73696.0,6.91,-7.35,-7.73,0,*7A
1504360965.11,48969,22.06,73698.5,6.91,-5.89,-6.63,0,*7E
1504360966.38,48970,22.06,73700.3,6.91,-5.85,-5.73,0,*78
1504360967.59,48971,22.06,73704.0,6.95,-4.53,-4.25,0,*75
1504360968.8,48972,22.06,73710.5,6.95,-4.17,-4.61,0,*76
1504360969.99,48973,22.06,73706.8,6.93,-4.53,-5.35,0,*71
1504360971.2,48974,22.06,73708.8,6.93,-5.51,-5.77,0,*73
1504360972.44,48975,22.06,73712.0,6.93,-5.77,-5.65,0,*75
1504360973.63,48976,22.06,73708.5,6.93,-6.35,-6.13,0,*71
1504360974.87,48977,22.06,73710.3,6.93,-6.93,-6.23,0,*7F
1504360976.06,48978,22.06,73710.3,6.93,-7.15,-6.39,0,*74
1504360977.27,48979,22.06,73710.5,6.93,-8.37,-7.05,0,*74
1504360978.47,48980,22.06,73710.8,6.93,-8.29,-6.23,0,*78
1504360979.69,48981,22.06,73714.3,6.93,-7.83,-6.27,0,*72
1504360980.92,48982,22.06,73714.5,6.93,-7.31,-5.11,0,*7E
1504360982.18,48983,22.06,73714.0,6.91,-6.77,-5.23,0,*7F
1504360983.45,48984,22.06,73714.3,6.91,-6.27,-4.81,0,*74
1504360984.66,48985,22.06,73712.8,6.91,-5.35,-3.87,0,*74
1504360985.88,48986,22.06,73716.3,6.91,-6.09,-4.33,0,*73
1504360987.07,48987,22.06,73718.5,6.93,-6.69,-4.21,0,*75
1504360988.29,48988,22.06,73712.5,6.93,-7.57,-4.65,0,*76
1504360989.51,48989,22.06,73712.3,6.93,-7.87,-4.69,0,*76
1504360990.7,48990,22.06,73710.0,6.93,-8.37,-4.65,0,*76
1504360991.92,48991,22.06,73714.3,6.93,-8.07,-3.87,0,*7F
1504360993.13,48992,22.06,73716.5,6.93,-8.63,-3.51,0,*75
1504360994.34,48993,22.06,73716.3,6.93,-8.17,-2.67,0,*73
1504360995.55,48994,22.06,73718.0,6.93,-9.49,-3.07,0,*79
1504360996.77,48995,22.06,73716.3,6.93,-11.51,-3.15,0,*4B
1504360998.02,48996,22.06,73712.0,6.93,-9.11,-1.99,0,*73
1504360999.2,48997,22.06,73712.8,6.93,-8.29,-1.51,0,*7C
1504361000.42,48998,22.06,73714.3,6.93,-7.31,-0.41,0,*45
1504361001.62,48999,22.06,73718.5,6.93,-6.13,0.37,0,*69
1504361002.85,49000,22.06,73718.5,6.95,-5.47,0.71,0,*67
1504361004.05,49001,22.06,73710.8,6.93,-6.55,0.59,0,*6A
1504361005.28,49002,22.06,73712.5,6.93,-5.23,1.43,0,*51
1504361006.48,49003,22.06,73710.8,6.93,-4.45,1.71,0,*50
1504361007.68,49004,22.06,73706.0,6.93,-4.05,1.63,0,*50
1504361008.92,49005,22.06,73714.5,6.93,-2.75,2.13,0,*54
1504361010.12,49006,22.06,73712.0,6.93,-2.15,2.01,0,*52
1504361011.32,49007,22.06,73708.8,6.93,-2.15,1.63,0,*54
1504361012.52,49008,22.06,73714.8,6.93,-1.51,1.55,0,*5D
1504361013.73,49009,22.06,73694.8,6.91,-0.53,1.79,0,*63
1504361014.96,49010,22.06,73694.0,6.91,-0.19,1.71,0,*6D
1504361016.17,49011,22.06,73700.5,6.89,1.41,2.43,0,*76
1504361017.4,49012,22.06,73698.5,6.89,1.85,2.21,0,*79
1504361018.62,49013,22.06,73698.0,6.89,1.63,1.89,0,*71
1504361019.84,49014,22.06,73710.5,6.87,2.21,2.31,0,*7D
1504361021.1,49015,22.06,73710.8,6.87,1.85,2.05,0,*76
1504361022.3,49016,22.06,73712.8,6.85,1.63,1.83,0,*72
1504361023.53,49017,22.06,73714.5,6.85,0.91,1.21,0,*47
1504361024.75,49018,22.06,73706.0,6.85,0.59,0.75,0,*7C
1504361025.98,49019,22.06,73694.3,6.83,0.87,1.33,0,*4B
1504361027.2,49020,22.06,73694.8,6.83,1.17,1.89,0,*78
1504361028.41,49021,22.06,73694.8,6.81,0.37,1.41,0,*4C
1504361029.59,49022,22.06,73700.0,6.81,-0.29,1.41,0,*6D
1504361030.82,49023,22.06,73710.5,6.81,-0.15,1.51,0,*62
1504361032.01,49024,22.06,73692.5,6.79,-1.51,0.51,0,*62
1504361033.21,49025,22.06,73698.8,6.75,-0.57,1.13,0,*6F
1504361034.44,49026,22.06,73702.5,6.79,-0.23,0.91,0,*58
1504361035.64,49027,22.06,73698.3,6.79,-0.41,0.51,0,*51
1504361036.85,49028,22.06,73692.0,6.79,-0.23,0.33,0,*5E
1504361038.07,49029,22.06,73698.0,6.75,0.13,0.59,0,*71
1504361039.29,49030,22.06,73706.8,6.75,0.51,1.37,0,*46
1504361040.48,49031,22.06,73706.0,6.79,-0.07,0.79,0,*6E
1504361041.7,49032,22.06,73702.5,6.79,-0.97,-0.23,0,*76
1504361042.94,49033,22.06,73694.5,6.75,-1.13,-0.23,0,*46
1504361044.14,49034,22.06,73700.3,6.75,-0.57,0.29,0,*57
1504361045.34,49035,22.06,73706.3,6.75,-0.97,0.01,0,*60
1504361046.55,49036,22.06,73706.8,6.79,-1.39,-0.19,0,*4E
1504361047.78,49037,22.06,73702.5,6.75,-1.09,0.37,0,*61
1504361048.97,49038,22.06,73700.3,6.79,-0.57,0.95,0,*50
1504361050.2,49039,22.06,73710.3,6.75,-0.27,1.33,0,*67
1504361051.39,49040,22.06,73706.3,6.75,0.25,1.75,0,*44
1504361052.61,49041,22.06,73704.3,6.75,0.17,1.37,0,*42
1504361053.83,49042,22.06,73700.8,6.75,0.13,1.13,0,*43
1504361055.05,49043,22.06,73702.3,6.75,0.41,1.25,0,*40
1504361056.27,49044,22.06,73706.5,6.75,0.29,1.37,0,*4A
1504361057.46,49045,22.06,73704.3,6.73,-0.33,0.97,0,*50
1504361058.69,49046,22.06,73704.3,6.73,-1.21,0.51,0,*6B
1504361059.92,49047,22.06,73700.5,6.71,-1.35,0.83,0,*62
1504361061.16,49048,22.06,73698.3,6.71,-1.05,0.83,0,*6E
1504361062.39,49049,22.06,73704.0,6.73,-1.25,0.47,0,*67
1504361063.61,49050,22.06,73700.0,6.71,-0.93,0.87,0,*5D
1504361064.82,49051,22.06,73708.8,6.71,-0.53,1.09,0,*67
1504361066.03,49052,22.06,73710.3,6.71,0.33,1.93,0,*4C
1504361067.24,49053,22.06,73712.8,6.71,-0.03,2.17,0,*5C
1504361068.49,49054,22.06,73712.3,6.73,-0.89,2.05,0,*68
1504361069.72,49055,22.06,73708.3,6.73,-1.63,1.97,0,*54
1504361070.94,49056,22.06,73702.3,6.73,-2.83,1.63,0,*51
1504361072.17,49057,22.06,73708.3,6.71,-2.47,1.89,0,*5E
1504361073.4,49058,22.06,73706.8,6.73,-2.19,2.21,0,*59
1504361074.6,49059,22.06,73706.5,6.75,-2.19,2.47,0,*5E
1504361075.79,49060,22.06,73708.3,6.75,-1.59,2.65,0,*53
1504361076.96,49061,22.06,73702.5,6.79,-0.41,2.95,0,*69
1504361078.15,49062,22.06,73704.8,6.79,0.33,2.91,0,*46
1504361079.34,49063,22.06,73704.3,6.79,1.05,3.19,0,*72
1504361080.57,49064,22.06,73706.0,6.79,1.97,3.41,0,*73
1504361081.8,49065,22.06,73708.5,6.79,1.55,2.85,0,*75
1504361083.04,49066,22.06,73706.3,6.81,1.59,2.85,0,*7D
1504361084.26,49067,22.06,73708.8,6.81,1.67,2.95,0,*70
1504361085.49,49068,22.06,73704.8,6.81,1.41,2.43,0,*70
1504361086.72,49069,22.06,73706.3,6.83,0.79,2.13,0,*4C
1504361087.94,49070,22.06,73710.0,6.81,-0.53,1.55,0,*62
1504361089.15,49071,22.06,73714.5,6.83,-1.55,0.55,0,*67
1504361090.34,49072,22.06,73710.3,6.83,-4.33,-1.55,0,*7D
1504361091.53,49073,22.06,73706.5,6.85,-6.09,-2.23,0,*73
1504361092.73,49074,22.06,73704.8,6.85,-6.85,-2.31,0,*73
1504361093.94,49075,22.06,73704.3,6.83,-7.69,-3.03,0,*77
1504361095.15,49076,22.06,73702.3,6.83,-7.69,-2.79,0,*78
1504361096.39,49077,22.06,73706.8,6.87,-7.23,-2.59,0,*71
1504361097.61,49078,22.06,73708.8,6.87,-6.89,-2.83,0,*78
1504361098.84,49079,22.06,73704.0,6.87,-7.31,-3.23,0,*70
1504361100.05,49080,22.06,73702.8,6.87,-7.53,-2.83,0,*79
1504361101.29,49081,22.06,73704.8,6.85,-5.61,-2.07,0,*75
1504361102.51,49082,22.06,73702.3,6.87,-3.95,-1.25,0,*7A
1504361103.7,49083,22.06,73706.3,6.89,-3.07,-0.73,0,*4C
1504361104.92,49084,22.06,73704.8,6.91,-2.27,-0.41,0,*40
1504361106.13,49085,22.06,73706.0,6.89,-2.47,-0.53,0,*4D
1504361107.37,49086,22.06,73708.3,6.91,-2.55,-0.53,0,*44
1504361108.59,49087,22.06,73710.5,6.91,-2.27,-0.19,0,*4E
1504361109.81,49088,22.06,73706.8,6.89,-3.83,-1.39,0,*74
1504361111.06,49089,22.06,73708.3,6.91,-5.35,-1.87,0,*72
1504361112.31,49090,22.06,73712.8,6.91,-4.85,-0.93,0,*44
1504361113.54,49091,22.06,73712.8,6.89,-2.67,0.63,0,*64
1504361114.74,49092,22.06,73712.8,6.89,-2.79,0.63,0,*68
1504361115.96,49093,22.06,73702.5,6.91,-3.91,0.05,0,*57
1504361117.17,49094,22.06,73700.5,6.89,-4.09,0.21,0,*69
1504361118.4,49095,22.06,73700.0,6.89,-3.71,0.67,0,*62
1504361119.61,49096,22.06,73700.0,6.89,-3.07,1.37,0,*54
1504361120.85,49097,22.06,73698.5,6.89,-1.43,1.85,0,*5E
1504361122.09,49098,22.06,73698.0,6.89,-1.05,1.97,0,*50
1504361123.29,49099,22.06,73696.5,6.89,-0.73,1.59,0,*63
1504361124.49,49100,22.06,73698.3,6.89,-0.65,1.59,0,*65
1504361125.7,49101,22.06,73704.3,6.87,0.13,2.27,0,*4C
1504361126.95,49102,22.06,73702.5,6.87,0.63,2.39,0,*47
1504361128.19,49103,22.06,73702.3,6.85,1.37,2.81,0,*77
1504361129.42,49104,22.06,73704.3,6.87,1.75,2.81,0,*74
1504361130.69,49105,22.06,73704.3,6.87,2.17,2.81,0,*72
1504361131.92,49106,22.06,73698.3,6.85,2.55,3.03,0,*7E
1504361133.15,49107,22.06,73702.3,6.87,2.43,2.99,0,*78
1504361134.35,49108,22.06,73706.8,6.85,1.75,2.47,0,*70
1504361135.58,49109,22.06,73710.8,6.87,1.09,2.27,0,*7E
1504361136.79,49110,22.06,73718.8,6.85,0.87,2.65,0,*45
1504361138.0,49111,22.06,73706.5,6.87,0.01,2.55,0,*7B
1504361139.21,49112,22.06,73700.8,6.85,-0.77,2.17,0,*60
1504361140.44,49113,22.06,73702.8,6.87,-0.11,2.47,0,*66
1504361141.67,49114,22.06,73708.5,6.85,0.87,2.81,0,*4B
1504361142.9,49115,22.06,73710.3,6.83,1.67,3.15,0,*7F
1504361144.12,49116,22.06,73706.3,6.85,1.59,2.77,0,*72
1504361145.33,49117,22.06,73708.5,6.85,1.63,2.65,0,*79
1504361146.55,49118,22.06,73712.0,6.81,2.25,2.95,0,*7C
1504361147.78,49119,22.06,73708.3,6.83,2.51,3.07,0,*76
1504361149.01,49120,22.06,73708.5,6.83,2.51,3.11,0,*7B
1504361150.22,49121,22.06,73708.3,6.83,1.89,2.61,0,*7A
1504361151.42,49122,22.06,73704.3,6.83,1.83,2.77,0,*74
1504361152.63,49123,22.06,73710.3,6.83,2.05,2.99,0,*78
1504361153.83,49124,22.06,73708.5,6.85,2.31,3.03,0,*7C
1504361155.06,49125,22.06,73710.5,6.85,2.43,3.15,0,*7F
1504361156.27,49126,22.06,73710.5,6.85,2.91,3.49,0,*7A
1504361157.48,49127,22.06,73710.0,6.85,2.99,3.41,0,*7B
1504361158.68,49128,22.06,73704.3,6.85,2.99,3.49,0,*7C
1504361159.94,49129,22.06,73706.0,6.87,3.15,3.53,0,*71
1504361161.16,49130,22.06,73706.8,6.85,3.49,3.97,0,*7A
1504361162.41,49131,22.06,73708.5,6.87,3.49,3.75,0,*75
1504361163.67,49132,22.06,73708.8,6.87,3.49,3.71,0,*72
1504361164.89,49133,22.06,73708.5,6.87,3.49,3.63,0,*70
1504361166.09,49134,22.06,73708.3,6.85,3.97,4.07,0,*73
1504361167.3,49135,22.06,73710.0,6.87,4.23,4.41,0,*7A
1504361168.51,49136,22.06,73710.0,6.87,4.33,4.45,0,*7C
1504361169.69,49137,22.06,73710.3,6.89,4.23,4.37,0,*77
1504361170.88,49138,22.06,73714.3,6.89,4.33,4.57,0,*7F
1504361172.06,49139,22.06,73708.5,6.89,4.15,4.15,0,*7C
1504361173.25,49140,22.06,73712.8,6.89,3.93,3.89,0,*79
1504361174.43,49141,22.06,73714.0,6.93,3.81,3.81,0,*78
1504361175.69,49142,22.06,73714.3,6.91,3.79,3.71,0,*71
1504361176.92,49143,22.06,73710.8,6.91,2.95,3.11,0,*75
1504361178.14,49144,22.06,73712.5,6.93,2.13,2.73,0,*7B
1504361179.37,49145,22.06,73710.3,6.93,0.95,2.05,0,*47
1504361180.6,49146,22.06,73708.8,6.93,0.91,2.13,0,*47
1504361181.8,49147,22.06,73714.5,6.95,0.01,1.71,0,*7E
1504361182.99,49148,22.06,73714.0,6.93,-0.61,1.47,0,*69
1504361184.22,49149,22.06,73710.0,6.95,-0.57,1.21,0,*6B
1504361185.41,49150,22.06,73710.8,6.97,-0.03,1.25,0,*54
1504361186.6,49151,22.06,73710.3,6.97,0.01,1.37,0,*79
1504361187.84,49152,22.06,73710.8,6.99,0.51,2.09,0,*4F
1504361189.09,49153,22.06,73708.5,6.99,1.17,2.61,0,*73
1504361190.32,49154,22.06,73706.3,6.99,1.47,2.61,0,*71
1504361191.58,49155,22.06,73704.3,6.99,1.71,2.73,0,*76
1504361192.8,49156,22.06,73702.5,6.99,1.79,2.69,0,*76
1504361194.06,49157,22.06,73704.0,6.99,2.13,3.07,0,*71
1504361195.28,49158,22.0,73704.8,7.03,2.27,3.23,0,*7D
1504361196.51,49159,22.06,73710.5,7.03,1.75,2.77,0,*78
1504361197.75,49160,22.06,73704.3,7.05,1.29,2.39,0,*77
1504361198.96,49161,22.06,73706.3,7.03,0.21,1.41,0,*45
1504361200.21,49162,22.06,73706.8,7.03,-0.89,0.79,0,*53
1504361201.45,49163,22.06,73706.0,7.03,-1.17,0.55,0,*6A
1504361202.71,49164,22.06,73702.0,6.99,-1.05,0.41,0,*69
1504361203.96,49165,22.06,73702.0,6.99,-1.05,0.41,0,*68
1504361205.18,49166,22.06,73700.0,6.99,-2.15,-0.19,0,*49
1504361206.4,49167,22.0,73694.5,6.99,-2.15,0.33,0,*6D
1504361207.6,49168,22.06,73696.0,6.97,-0.57,1.21,0,*6A
1504361208.82,49169,22.06,73696.0,6.97,0.87,1.97,0,*46
1504361210.04,49170,22.06,73696.3,6.95,1.59,2.27,0,*76
1504361211.28,49171,22.0,73696.8,6.95,2.17,2.65,0,*78
1504361212.53,49172,22.06,73702.0,6.95,2.43,2.81,0,*70
1504361213.78,49173,22.06,73704.5,6.95,2.89,3.11,0,*7F
1504361215.04,49174,22.06,73706.5,6.95,3.11,3.41,0,*7D
1504361216.27,49175,22.06,73710.3,6.95,3.37,3.59,0,*71
1504361217.47,49176,22.06,73708.0,6.93,3.49,3.89,0,*70
1504361218.7,49177,22.0,73704.8,6.95,3.71,4.07,0,*7D
1504361219.95,49178,22.0,73708.3,6.95,3.49,3.75,0,*7B
1504361221.12,49179,22.06,73710.5,6.97,3.59,3.85,0,*76
1504361222.29,49180,22.06,73708.5,6.97,2.99,3.25,0,*77
1504361223.51,49181,22.06,73710.8,6.97,2.89,3.11,0,*70
1504361224.69,49182,22.06,73710.8,6.97,2.99,3.25,0,*75
1504361225.88,49183,22.06,73710.8,6.97,2.89,2.99,0,*73
1504361227.11,49184,22.06,73710.3,6.97,2.89,3.15,0,*71
1504361228.34,49185,22.0,73714.5,6.95,2.91,3.37,0,*7B
1504361229.56,49186,22.06,73718.0,6.95,3.03,3.59,0,*7A
1504361230.81,49187,22.06,73722.3,6.95,2.89,3.49,0,*79
1504361232.04,49188,22.06,73722.8,6.95,2.69,3.29,0,*7E
1504361233.29,49189,22.06,73720.3,6.95,2.21,3.15,0,*7C
1504361234.55,49190,22.06,73722.0,6.95,1.25,2.51,0,*72
1504361235.74,49191,22.06,73714.8,6.97,-0.11,1.43,0,*6A
1504361236.97,49192,22.06,73706.8,6.93,-0.89,0.59,0,*56
1504361238.17,49193,22.06,73700.3,6.93,-0.15,0.83,0,*55
1504361239.36,49194,22.06,73694.3,6.93,0.05,1.33,0,*74
1504361240.57,49195,22.06,73694.5,6.93,0.25,1.93,0,*4D
1504361241.77,49196,22.06,73698.3,6.93,-0.19,1.43,0,*61
1504361242.99,49197,22.06,73702.5,6.95,-0.11,1.43,0,*6E
1504361244.19,49198,22.06,73702.3,6.93,-0.07,1.29,0,*5C
1504361245.4,49199,22.06,73700.8,6.95,-0.37,0.95,0,*5E
1504361246.6,49200,22.0,73698.3,6.93,-0.77,0.59,0,*5F
1504361247.86,49201,22.0,73702.8,6.91,-1.39,-0.41,0,*43
1504361249.1,49202,22.0,73702.8,6.91,-1.91,-0.49,0,*4A
1504361250.31,49203,22.06,73704.3,6.91,-1.75,-0.07,0,*7B
1504361251.53,49204,22.06,73702.3,6.91,-1.55,0.13,0,*66
1504361252.8,49205,22.06,73698.8,6.91,-1.39,0.59,0,*63
1504361254.03,49206,22.06,73700.3,6.91,-2.15,0.33,0,*61
1504361255.29,49207,22.0,73702.3,6.91,-3.63,0.13,0,*62
1504361256.51,49208,22.06,73706.8,6.89,-3.55,-0.41,0,*4B
1504361257.74,49209,22.0,73704.3,6.89,-3.71,-0.85,0,*44
1504361258.94,49210,22.06,73708.3,6.89,-3.83,-1.59,0,*71
1504361260.13,49211,22.06,73712.0,6.89,-4.09,-2.27,0,*7F
1504361261.38,49212,22.0,73714.3,6.87,-3.83,-2.07,0,*75
1504361262.63,49213,22.0,73712.0,6.87,-4.17,-2.63,0,*7C
1504361263.84,49214,22.06,73714.8,6.87,-4.29,-3.15,0,*76
1504361265.05,49215,22.0,73710.8,6.87,-4.53,-3.27,0,*7B
1504361266.32,49216,22.06,73706.8,6.87,-3.59,-2.59,0,*7D
1504361267.54,49217,22.06,73708.3,6.89,-3.11,-2.47,0,*71
1504361268.73,49218,22.06,73710.5,6.89,-3.11,-2.83,0,*76
1504361269.96,49219,22.06,73712.5,6.89,-2.47,-1.79,0,*73
1504361271.17,49220,22.06,73714.0,6.89,-2.07,-1.17,0,*75
1504361272.37,49221,22.06,73716.0,6.89,-3.23,-1.71,0,*73
1504361273.58,49222,22.0,73714.3,6.91,-4.65,-2.43,0,*7E
1504361274.8,49223,22.06,73714.8,6.89,-5.69,-3.35,0,*7B
1504361276.06,49224,22.06,73716.3,6.91,-6.63,-3.59,0,*76
1504361277.32,49225,22.0,73714.5,6.91,-7.01,-3.67,0,*7F
1504361278.58,49226,22.06,73716.3,6.91,-6.63,-3.67,0,*79
1504361279.79,49227,22.0,73716.8,6.93,-7.43,-4.33,0,*7F
1504361280.99,49228,22.0,73718.0,6.93,-8.71,-4.37,0,*7A
1504361282.21,49229,22.0,73712.8,6.93,-10.19,-4.73,0,*4C
1504361283.48,49230,22.0,73718.8,6.95,-10.79,-5.61,0,*46
1504361284.68,49231,22.06,73712.8,6.93,-10.97,-6.35,0,*43
1504361285.95,49232,22.06,73706.5,6.95,-11.81,-7.39,0,*4D
1504361287.17,49233,22.0,73704.0,6.95,-12.29,-7.15,0,*43
1504361288.42,49234,22.06,73706.8,6.95,-11.89,-7.19,0,*41
1504361289.63,49235,22.06,73710.5,6.95,-11.19,-6.39,0,*4A
1504361290.87,49236,22.06,73716.0,6.95,-9.31,-5.31,0,*71
1504361292.09,49237,22.0,73712.3,6.97,-8.93,-5.85,0,*74
1504361293.37,49238,22.0,73714.0,6.99,-9.11,-5.81,0,*7A
1504361294.55,49239,22.06,73716.3,6.97,-8.25,-6.09,0,*70
1504361295.79,49240,22.0,73714.3,6.99,-8.55,-5.81,0,*74
1504361297.01,49241,22.0,73714.8,6.99,-8.21,-5.39,0,*75
1504361298.25,49242,22.0,73716.0,6.99,-7.53,-5.03,0,*75
1504361299.5,49243,22.06,73722.8,6.99,-7.23,-4.85,0,*7C
1504361300.74,49244,22.0,73720.8,7.03,-7.69,-5.35,0,*7D
1504361301.96,49245,22.06,73722.0,7.03,-9.05,-5.47,0,*7D
1504361303.2,49246,22.0,73712.5,7.03,-8.85,-5.73,0,*70
1504361304.41,49247,22.0,73712.5,7.05,-9.49,-6.55,0,*71
1504361305.61,49248,22.0,73710.5,7.05,-10.15,-7.23,0,*4F
1504361306.85,49249,22.0,73712.5,7.05,-9.37,-6.23,0,*77
1504361308.08,49250,22.0,73714.3,7.05,-8.85,-6.63,0,*73
1504361309.34,49251,22.0,73712.0,7.07,-9.41,-6.63,0,*79
1504361310.56,49252,22.06,73714.5,7.07,-8.75,-5.43,0,*7D
1504361311.8,49253,22.0,73710.8,7.09,-7.77,-4.89,0,*78
1504361313.05,49254,22.06,73716.3,7.07,-7.83,-5.07,0,*7D
1504361314.3,49255,22.06,73714.5,7.07,-7.19,-5.61,0,*7F
1504361315.54,49256,22.06,73712.5,7.05,-6.93,-5.89,0,*7B
1504361316.79,49257,22.0,73710.8,7.05,-7.01,-5.85,0,*7C
1504361318.06,49258,22.0,73708.8,7.03,-5.65,-5.07,0,*7F
1504361319.28,49259,22.0,73712.5,7.05,-5.23,-4.57,0,*7E
1504361320.52,49260,22.0,73710.3,7.03,-5.51,-5.77,0,*74
1504361321.76,49261,22.0,73710.5,7.03,-5.39,-5.77,0,*7B
1504361322.98,49262,22.0,73708.3,6.99,-6.01,-6.43,0,*76
1504361324.19,49263,22.0,73710.3,7.03,-6.31,-6.09,0,*78
1504361325.43,49264,22.0,73712.0,6.99,-5.69,-6.13,0,*78